Tracking 31027 objects as of 19-Jul-2025
HD Live streaming from Space Station
objects crossing your sky now

COSMOS 1275 DEB

Track COSMOS 1275 DEB now!
10-day predictions


NORAD ID: 15780
Int'l Code: 1981-053KH
Perigee: 875.5 km
Apogee: 957.3 km
Inclination: 82.8 °
Period: 103.2 minutes
Semi major axis: 7287 km
RCS: 0.022 m2 (small)
Launch date: June 4, 1981
Source: Commonwealth of Independent States (former USSR) (CIS)
Launch site: PLESETSK MISSILE AND SPACE COMPLEX (PKMTR)

Note: This is SATELLITE DEBRIS
Your satellite tracking list
NOAA 16 DEB
Track 1 satellite(s)




NASA's NSSDC Master Catalog

Two Line Element Set (TLE):
1 15780U 81053KE  25199.86170125  .00001134  00000-0  81245-3 0  9996
2 15780  82.8166 151.2773 0056157  25.7210   3.4633 13.95549508 33724
Source of the keplerian elements: AFSPC